Location: Neuvy Saint Sepulchre
(46.5953°N, 1.8122°E)
Time: 14:31:09
(UTC+02:00)

ISS - Pass Details

Date: 30 September 2022
Orbit: 414 x 417 km, 51.6° (Epoch: 01 October)

Event Time Altitude Azimuth Distance (km) Brightness Sun altitude
Rises 21:16:58 0° 295° (WNW) 2,362 1.7 -18.2°
Reaches altitude 10° 21:19:05 10° 293° (WNW) 1,496 0.3 -18.6°
Maximum altitude 21:22:25 66° 211° (SSW) 459 -3.6 -19.1°
Enters shadow 21:22:45 60° 173° (S) 480 -3.7 -19.2°
